User: anonymous   Login
Location: Caltech
(34.1382°N, 118.1253°W)
Time: 00:13:46
(UTC-07:00)
Language:

Cosmos 2237 Rocket - Orbit

View from above orbital plane
View from above orbital plane
View from above satellite
View from above satellite

Ground track
Ground track

The orbit data is extracted from the following two-line orbital elements,

1 22566U 93016B   17149.89672250 +.00000066 +00000-0 +58825-4 0  9995
2 22566 071.0076 105.3169 0009835 173.8728 186.2516 14.14950764248688
Epoch (UTC): 29 May 2017 21:31:16
Eccentricity: 0.0009835
inclination: 71.0076°
perigee height: 835 km
apogee height: 849 km
right ascension of ascending node: 105.3169°
argument of perigee: 173.8728°
revolutions per day: 14.14950764
mean anomaly at epoch: 186.2516°
orbit number at epoch: 24868

The dashed part of the orbit path shows where the satellite is in the earth's shadow,  

DLR